Regional Weather Roundup
Issued by NWS Charleston, SC

Home | Current Version | Previous Version | Text Only | Print | Product List | Glossary On
Versions: 1 2 3 4 5 6 7 8 9 10 11 12 13 14 15 16 17 18 19 20 21 22 23 24 25 26 27 28 29 30 31 32 33 34 35 36 37 38 39 40 41 42 43 44 45 46 47 48 49 50
000
ASUS42 KCHS 310827
RWRCHS

REGIONAL WEATHER ROUNDUP
NATIONAL WEATHER SERVICE CHARLESTON SC
400 AM EDT MON AUG 31 2015

NOTE: "FAIR" INDICATES FEW OR NO CLOUDS BELOW 12,000 FEET WITH NO
SIGNIFICANT WEATHER AND/OR OBSTRUCTIONS TO VISIBILITY.

NOT ALL STATIONS ARE QUALITY CONTROLLED BY THE NATIONAL
WEATHER SERVICE. USE DATA WITH CAUTION...ESPECIALLY
DEWPOINT OBSERVATIONS.

SCZ027-030-031-034>040-042>050-310900-
...SOUTHEAST SOUTH CAROLINA...

CITY           SKY/WX    TMP DP  RH WIND       PRES   REMARKS
N CHARLESTON   LGT RAIN  77  73  87 SW5       30.04F
WATERFRONT PRK   N/A     79  76  91 SE5       30.02R
MOUNT PLEASANT HVY RAIN  75  75 100 S8        30.04S
JOHNS ISLAND   PTSUNNY   79  77  94 S6        30.02F
PINOPOLIS        N/A     77  73  88 CALM      29.96F
MONCKS CORNER  PTSUNNY   75  72  88 CALM      30.05R
SUMMERVILLE    CLOUDY    72  72 100 N3        30.05F
BEAUFORT MCAS  RAIN      77  74  90 E5        30.03S
BEAUFORT ARPT  PTSUNNY   77  75  94 CALM      30.01F
HILTON HEAD IS CLOUDY    79  77  94 SE5       30.01F
WALTERBORO     HVY RAIN  73  72  94 CALM      30.05F
ALLENDALE      CLOUDY    73  72  94 CALM      30.03F

...SOUTHERN MIDLANDS AND PEE DEE...

CITY           SKY/WX    TMP DP  RH WIND       PRES   REMARKS
GEORGETOWN     NOT AVBL
KINGSTREE      NOT AVBL
ORANGEBURG     CLOUDY    73  71  93 N3        30.05F
BARNWELL       CLOUDY    72  72 100 N5        30.06S
AIKEN          FOG       63  61  94 N5        30.11S VSB 1
MANNING        CLOUDY    72  72 100 SW5       30.05S
COLUMBIA       CLOUDY    71  68  90 N5        30.06F
SUMTER         LGT RAIN  70  68  94 E3        30.05F
FLORENCE       HVY RAIN  72  70  93 CALM      30.06F FOG
MYRTLE BEACH   MOCLDY    81  72  74 S15       30.08S
N MYRTLE BEACH CLOUDY    80  73  79 S10       30.06F

$$

GAZ063-065-086>088-099>101-113>116-118-119-134>141-150-310900-
...SOUTHEAST GEORGIA...

CITY           SKY/WX    TMP DP  RH WIND       PRES   REMARKS
SAVANNAH ARPT  RAIN      75  73  93 NE3       30.02F FOG
HUNTER AAF     RAIN      75  75 100 CALM      29.98F FOG
FORT STEWART   MOCLDY    75  73  94 CALM      29.99F
STATESBORO     CLOUDY    73  32  22 CALM      30.03F
SYLVANIA       CLOUDY    74  74 100 CALM      30.04F FOG
CLAXTON        NOT AVBL

...CSRA...CENTRAL AND FAR SOUTHEAST GEORGIA...

CITY           SKY/WX    TMP DP  RH WIND       PRES   REMARKS
THOMSON        CLOUDY    70  70 100 N5        30.12F
AUGUSTA-BUSH   CLOUDY    69  68  96 N7        30.05F
AUGUSTA-DANIEL CLOUDY    70  66  87 N8        30.07F FOG
SWAINSBORO     CLOUDY   N/A N/A N/A NE3       30.05F FOG
VIDALIA        CLOUDY    73  72  94 NE5       30.03F
EASTMAN        CLOUDY    74  74 100 CALM      30.06F FOG
HAZLEHURST     CLOUDY    76  76 100 NE3       30.02S
ALMA           CLOUDY    75  74  96 CALM      30.01F
WAYCROSS       CLOUDY    78  78 100 NE3       30.01S
JESUP          CLOUDY    77  77 100 CALM      30.01F FOG
BAXLEY         CLOUDY    77  73  88 E3        30.01F FOG
BRUNSWICK      CLOUDY    73  73 100 CALM      30.00F
SAINT SIMONS   LGT RAIN  77  75  93 CALM      29.98F

$$

SCZ027-028-034-036>038-045-046-048>050-GAZ119-141-310900-
...LAKE AND SUPPLEMENTAL COASTAL OBSERVATIONS...

STATION/POSITION TIME  TEMP    WIND        PRES    WAVE   SWELL
                       AIR SEA DIR/SP/G            HT/PER HT/PER/DIR
                 (UTC) (F)     (DEG/KT/KT) (MB)    (FT/S) (FT/S/D)
UPR LAKE MARION  NOT AVBL
WINYAH BAY       0700   79     180/  5     1017.0F
LAKE MURRAY      0700   69     350/  3/  5 1018.3R
ACE BASIN NERRS  NOT AVBL
FORT PULASKI     NOT AVBL
SAPELO ISLAND    0800   79     130/  2     1016.0S

$$

ANZ835-935-AMZ111-154-330-350-352-354-370-450-454-472-310900-
...C-MAN AND BUOY OBSERVATIONS...

STATION/POSITION TIME  TEMP    WIND        PRES    WAVE   SWELL
                       AIR SEA DIR/SP/G            HT/PER HT/PER/DIR
                 (UTC) (F)     (DEG/KT/KT) (MB)    (FT/S) (FT/S/D)
BUOY 41004       0750   82 84  150/ 17/ 21 1016.5F   6/10   5/10
BUOY 41008       0750   81 84  160/ 12/ 14 1015.8F   5/10   3/100/10
FOLLY BEACH CMAN 0800   80     170/ 18/ 20 1016.8F
CAPERS NEARSHORE 0708   81     160/ 12/ 17 1017.8F
FRIPP NEARSHORE  0700   79     150/ 14/ 17 1016.8F


STATION/POSITION TIME  TEMP    WIND        PRES    WAVE   SWELL
                       AIR SEA DIR/SP/G            HT/PER HT/PER/DIR
                 (UTC) (F)     (DEG/KT/KT) (MB)    (FT/S) (FT/S/D)
5E ST. MARYS GA  0721      85                N/A     5/10   2/100/11
FRYING PAN BUOY  0750   81 82  150/  8/ 10 1018.9F   4/ 9   3/140/ 9
BUOY 41025       0750   80 83   20/  4/  6 1019.9F   3/10   3/130/10
CAPE LOOKOUT NC  0800   79     130/  6/  7 1019.5S
BUOY 41002       0750   83 84  180/  8/ 10 1020.0F   4/ 8   3/140/ 8
BUOY 41010       0720   81 85  140/  6/  8 1017.9F
ST AUGUSTINE FL  0800   76 83  190/  8/  9 1016.4F


$$



USA.gov is the U.S. government's official web portal to all federal, state and local government web resources and services.